Creek Data

    Home     View Charts     View Raw Data     Messages

ID Distance Battery Voltage Battery Current Internal Temp Internal Humidity External Temp Solar Input rssi snr Time Stamp Record
36432 0.0 3.97 -5 54 41 55 0 -78 7 03/30/2025 10:00 PM 18285
36431 0.0 3.97 -5 54 41 55 0 -77 8 03/30/2025 09:45 PM 18284
36430 0.0 4.04 -5 54 41 55 0 -83 7 03/30/2025 09:30 PM 18283
36429 15.1 3.97 -5 54 42 55 0 -80 8 03/30/2025 09:15 PM 18282
36428 0.0 3.97 -5 55 42 56 0 -81 8 03/30/2025 09:00 PM 18281
36427 15.1 4.04 -5 55 42 56 0 -79 8 03/30/2025 08:45 PM 18280
36426 0.0 3.98 -5 56 43 56 0 -80 8 03/30/2025 08:30 PM 18279
36425 0.0 3.98 -5 56 43 57 0 -80 7 03/30/2025 08:15 PM 18278
36424 15.1 3.98 -5 57 43 57 0 -84 8 03/30/2025 08:00 PM 18277
36423 0.0 3.98 -5 58 44 58 0.5 -81 7 03/30/2025 07:45 PM 18276
36422 0.0 3.97 -9 60 44 59 3.3 -81 8 03/30/2025 07:30 PM 18275
36421 0.0 3.99 0 62 43 60 4.5 -80 7 03/30/2025 07:16 PM 18274
36420 0.0 4.09 0 64 42 61 4.5 -80 8 03/30/2025 07:00 PM 18273
36419 0.0 4.05 17 65 41 63 4.5 -77 8 03/30/2025 06:45 PM 18272
36418 0.0 4.09 -5 65 42 63 4.5 -80 7 03/30/2025 06:30 PM 18271
36417 0.0 4.06 0 65 42 64 4.5 -80 8 03/30/2025 06:15 PM 18270
36416 15.0 4.07 0 65 42 65 5.1 -80 7 03/30/2025 06:00 PM 18269
36415 0.0 4.07 32 65 42 64 4.5 -80 6 03/30/2025 05:46 PM 18268
36414 0.0 4.08 27 66 42 65 4.5 -80 8 03/30/2025 05:30 PM 18267
36413 0.0 4.03 0 67 41 66 5.1 -80 7 03/30/2025 05:15 PM 18266
36412 0.0 4.03 0 66 42 65 5.1 -82 9 03/30/2025 05:00 PM 18265
36411 0.0 4.03 0 68 41 66 5.1 -85 8 03/30/2025 04:45 PM 18264
36410 0.0 4.03 0 67 42 66 5.1 -81 8 03/30/2025 04:30 PM 18263
36409 0.0 4.03 0 66 42 65 5.1 -81 8 03/30/2025 04:15 PM 18262
36408 0.0 4.03 0 69 41 65 5.1 -77 8 03/30/2025 04:00 PM 18261